Change the Weather History Date:

Saturday, November 9, 2013

  Actual Average Record
Temperature  
Mean Temperature 34 °F -  
Max Temperature 41 °F 46 °F 70 °F (2011)
Min Temperature 27 °F 29 °F 15 °F (2003)
Degree Days  
Heating Degree Days 31    
Moisture  
Dew Point 21 °F    
Average Humidity 56    
Maximum Humidity 75    
Minimum Humidity 43    
Precipitation  
Precipitation 0.00 in - - ()
Sea Level Pressure  
Sea Level Pressure 30.14 in    
Wind  
Wind Speed 6 mph (WNW)    
Max Wind Speed 13 mph    
Max Gust Speed 21 mph    
Visibility 10 miles    
Events      
Averages and records for this station are not official NWS values.
T = Trace of Precipitation, MM = Missing Value Source: NWS Daily Summary

Daily Weather History Graph

Daily Weather History Graph

Search for Another Location

Airport or City:

Trip Planner

Search our weather history database for the weather conditions in past years. The results will help you decide how hot, cold, wet, or windy it might be!

Date:

Astronomy

Nov. 09, 2013 Rise Set
Actual Time 6:36 AM EST 4:35 PM EST
Civil Twilight 6:07 AM EST 5:05 PM EST
Nautical Twilight 5:33 AM EST 5:39 PM EST
Astronomical Twilight 5:00 AM EST 6:12 PM EST
Moon 12:10 PM EST (11/9) 11:04 PM EST (11/9)
Length of Visible Light 10h 58m
Length of Day
9h 58m
Waxing Crescent, 44% of the Moon is Illuminated
Nov 9
Waxing Crescent
Nov 10
First Quarter
Nov 17
Full
Nov 25
Last Quarter
Dec 2
New

Hourly Weather History & Observations

Time (EST) Temp. Windchill Dew Point Humidity Pressure Visibility Wind Dir Wind Speed Gust Speed Precip Events Conditions
12:52 AM 34.0 °F 25.0 °F 17.1 °F 50% 30.15 in 10.0 mi West 12.7 mph 20.7 mph N/A   Overcast
1:52 AM 32.0 °F 25.6 °F 17.1 °F 54% 30.16 in 10.0 mi West 6.9 mph - N/A   Clear
2:52 AM 30.0 °F 24.1 °F 18.0 °F 61% 30.17 in 10.0 mi WNW 5.8 mph - N/A   Clear
3:52 AM 30.9 °F 27.5 °F 17.1 °F 57% 30.19 in 10.0 mi WNW 3.5 mph - N/A   Clear
4:52 AM 28.0 °F 22.8 °F 19.0 °F 69% 30.20 in 10.0 mi West 4.6 mph - N/A   Clear
5:52 AM 27.0 °F 23.0 °F 19.0 °F 72% 30.21 in 10.0 mi NW 3.5 mph - N/A   Clear
6:52 AM 27.0 °F 21.6 °F 19.9 °F 75% 30.23 in 10.0 mi WNW 4.6 mph - N/A   Mostly Cloudy
7:52 AM 32.0 °F 28.7 °F 19.0 °F 59% 30.25 in 10.0 mi NW 3.5 mph - N/A   Scattered Clouds
8:52 AM 35.1 °F 32.2 °F 18.0 °F 50% 30.24 in 10.0 mi West 3.5 mph - N/A   Clear
9:52 AM 37.9 °F 35.5 °F 17.1 °F 43% 30.23 in 10.0 mi Variable 3.5 mph - N/A   Mostly Cloudy
10:52 AM 39.0 °F 35.7 °F 19.0 °F 45% 30.22 in 10.0 mi West 4.6 mph - N/A   Overcast
11:52 AM 39.9 °F 33.9 °F 21.0 °F 47% 30.19 in 10.0 mi West 9.2 mph - N/A   Overcast
12:52 PM 39.9 °F 35.1 °F 24.1 °F 53% 30.16 in 10.0 mi West 6.9 mph - N/A   Overcast
1:52 PM 39.9 °F 35.1 °F 24.1 °F 53% 30.14 in 10.0 mi WSW 6.9 mph - N/A   Mostly Cloudy
2:52 PM 41.0 °F 38.0 °F 23.0 °F 49% 30.10 in 10.0 mi SW 4.6 mph - N/A   Scattered Clouds
3:52 PM 39.9 °F - 23.0 °F 51% 30.11 in 10.0 mi Calm Calm - N/A   Clear
4:52 PM 35.1 °F 31.0 °F 25.0 °F 67% 30.10 in 10.0 mi East 4.6 mph - N/A   Mostly Cloudy
5:52 PM 37.0 °F 33.3 °F 25.0 °F 62% 30.09 in 10.0 mi East 4.6 mph - N/A   Clear
6:52 PM 37.9 °F 32.7 °F 24.1 °F 57% 30.07 in 10.0 mi Variable 6.9 mph - N/A   Overcast
7:52 PM 39.0 °F 34.0 °F 23.0 °F 53% 30.05 in 10.0 mi East 6.9 mph - N/A   Mostly Cloudy
8:52 PM 39.9 °F 35.8 °F 21.9 °F 49% 30.06 in 10.0 mi East 5.8 mph - N/A   Overcast
9:52 PM 39.0 °F - 23.0 °F 53% 30.04 in 10.0 mi Calm Calm - N/A   Overcast
10:52 PM 39.0 °F 36.8 °F 23.0 °F 53% 29.99 in 10.0 mi East 3.5 mph - N/A   Overcast
11:52 PM 39.9 °F 37.8 °F 24.1 °F 53% 29.97 in 10.0 mi Variable 3.5 mph - N/A   Overcast